Theta_e
340 340 341 338 332 323 311 316 324 328 331 332 332 331 331 331 332 332 331 333 336 335 333 335 334 331 330 327 321 315 312 310 308 309 309 309 309 310 314 316 319 321 323 324 324 323 323 322 321 319 316 317 316 318 328 333 333 333 331 330 331 324
342 341 342 339 337 326 311 317 326 330 333 331 329 330 331 331 332 331 332 336 337 337 337 337 334 332 335 335 329 317 312 311 309 309 309 309 309 309 311 314 316 318 320 323 326 326 324 322 322 321 320 319 318 325 333 331 331 334 331 332 332 324
342 342 341 340 339 326 316 327 331 332 335 332 329 332 334 335 335 333 335 338 337 336 336 336 332 331 334 334 330 317 312 312 310 311 309 309 309 309 311 312 314 316 318 320 326 331 330 328 325 322 322 321 322 332 334 327 330 334 332 333 330 323
342 341 339 338 337 328 326 333 334 333 336 335 331 334 336 336 337 335 336 337 335 333 330 333 329 328 330 331 329 320 321 321 318 316 310 310 311 309 309 310 313 314 316 320 329 334 336 337 334 327 323 323 329 335 333 329 333 334 333 333 327 322
340 339 337 337 335 332 333 334 334 334 337 336 334 336 336 336 337 335 335 334 332 329 328 331 327 329 333 332 330 325 329 330 328 326 316 319 324 317 315 315 316 314 316 325 332 334 335 338 337 335 330 330 335 336 334 333 334 333 334 333 327 321
337 336 335 335 335 334 334 334 334 335 336 336 336 337 336 335 335 332 332 332 331 326 325 328 326 331 335 333 333 331 331 330 331 332 326 330 335 329 329 329 326 323 324 331 333 332 333 335 336 337 336 335 335 334 333 334 334 334 334 334 329 322
335 335 335 335 335 334 334 334 334 335 335 336 335 335 335 334 335 333 330 330 330 326 327 331 331 333 334 334 336 335 335 334 334 335 331 334 335 332 334 334 332 330 329 330 331 332 333 333 333 335 336 336 335 334 333 332 333 334 334 334 332 325
335 334 335 335 335 334 334 335 334 335 336 335 334 335 334 333 332 328 323 323 326 330 334 336 336 336 336 337 338 336 337 336 335 335 333 333 334 334 334 334 333 332 329 327 327 330 332 333 332 333 335 335 335 334 334 333 333 334 333 334 333 329
335 334 335 335 334 334 335 335 335 336 335 333 334 334 332 331 329 326 325 327 330 335 337 337 337 338 337 338 338 336 336 336 336 336 335 333 335 336 335 335 335 333 333 330 328 327 329 331 332 333 333 334 334 334 334 333 332 333 333 333 334 332
335 335 335 335 335 335 335 335 335 334 332 332 332 330 330 332 333 333 334 336 335 336 336 336 337 337 336 336 336 335 335 335 336 336 336 336 337 337 337 337 336 335 334 334 332 329 328 329 331 333 333 332 329 329 332 332 333 334 333 333 334 334
334 335 335 336 335 335 335 335 334 333 333 335 333 332 334 335 335 336 337 336 336 336 336 336 336 336 336 336 336 336 336 336 338 338 337 338 338 338 337 337 337 337 335 334 334 332 331 331 330 331 333 333 331 329 331 332 333 334 334 333 334 334
334 335 335 336 335 336 336 335 336 336 337 338 337 337 338 337 336 337 336 335 336 336 336 335 335 336 337 338 338 338 338 338 338 338 338 338 338 338 336 335 335 336 335 334 334 333 333 333 332 331 332 333 334 334 334 332 331 332 334 334 334 334
334 335 335 336 336 337 337 337 339 339 338 338 338 339 338 337 337 336 336 335 335 335 335 335 335 335 337 339 339 339 339 339 337 337 336 335 335 336 336 336 336 336 335 334 335 335 334 334 333 333 332 332 334 335 336 335 334 333 333 334 334 334
335 336 337 337 339 339 338 338 339 339 338 338 338 338 338 337 336 336 335 335 335 335 335 335 335 335 337 339 339 339 339 339 337 334 334 334 335 336 336 338 338 337 336 335 336 335 334 335 334 334 333 333 333 334 335 335 335 335 333 333 333 334
335 337 338 338 339 338 338 339 339 339 337 337 337 337 336 336 336 338 338 336 335 335 335 335 335 335 337 339 339 339 339 339 336 335 336 336 336 336 337 338 338 337 337 336 336 335 335 335 335 334 333 334 333 334 334 334 335 336 335 332 331 333
336 337 338 338 338 337 338 339 338 337 336 336 336 335 336 338 339 340 340 338 336 335 335 336 336 336 337 339 339 339 340 338 335 335 336 336 335 335 336 336 336 336 336 335 335 336 335 335 335 335 335 335 334 334 334 334 334 335 335 334 333 334
337 337 337 338 337 337 338 337 337 337 337 337 336 337 339 340 339 339 340 339 337 336 336 335 335 335 335 338 339 340 339 336 334 334 334 334 334 333 333 334 334 334 335 334 334 335 335 335 335 335 335 335 335 335 334 334 334 334 334 335 335 334
337 337 338 338 337 337 338 337 336 337 337 337 338 340 340 339 337 338 339 338 337 336 336 335 335 335 334 336 337 338 337 334 333 333 332 334 335 334 334 334 334 334 334 334 334 334 334 334 335 334 334 334 334 335 334 333 333 334 334 334 335 335
337 338 338 337 336 336 337 337 337 336 336 338 340 338 337 337 337 337 337 338 338 336 336 335 334 335 334 334 335 335 334 333 332 331 331 335 337 337 336 333 333 333 333 334 334 334 334 334 334 333 332 331 332 332 332 332 332 333 334 334 335 335
337 337 337 336 336 336 336 337 337 337 337 338 339 336 336 336 336 337 337 338 338 336 336 336 335 335 334 333 334 333 333 333 333 333 333 334 335 335 334 332 331 331 332 333 334 334 335 334 333 332 332 332 333 333 332 332 332 332 332 331 332 333
337 337 336 336 337 337 337 336 337 338 337 337 336 336 336 336 337 338 338 338 337 335 335 335 334 335 334 333 334 333 333 333 333 334 333 332 332 332 332 332 331 331 331 333 333 333 333 332 332 333 334 335 335 335 334 333 332 331 330 329 329 331
336 336 337 337 337 337 338 338 338 338 337 337 337 337 336 337 338 338 338 337 336 334 334 333 334 334 334 334 334 333 333 333 333 332 332 332 332 332 331 331 332 332 332 333 333 334 333 332 333 334 334 334 335 334 334 334 333 331 329 330 330 330
335 335 337 337 337 337 337 338 338 338 338 338 338 337 337 337 338 337 335 335 334 334 334 334 335 335 335 334 333 333 333 333 333 332 332 332 332 333 332 332 332 333 333 334 334 334 333 333 333 333 333 333 334 334 332 333 334 332 331 331 331 330
334 335 337 336 336 337 336 337 337 337 337 338 338 337 337 337 337 335 335 335 335 334 335 335 335 335 335 334 334 334 333 333 333 332 332 333 333 333 333 332 333 333 333 334 334 334 333 332 332 332 333 333 332 332 332 332 333 333 332 331 331 331
335 336 336 336 336 337 337 337 337 337 337 337 337 337 336 335 335 334 334 335 334 334 335 335 334 334 334 333 333 334 333 333 333 333 333 333 333 333 333 333 333 333 333 333 333 333 332 332 332 332 332 332 332 332 332 331 332 332 332 332 332 332
336 336 336 337 338 337 338 338 338 338 337 336 336 335 335 335 335 334 333 334 332 332 333 332 332 332 332 332 332 332 332 332 332 332 333 332 332 332 331 331 331 331 332 332 332 332 333 332 332 332 331 331 331 331 331 331 331 331 331 332 332 332
336 336 336 337 338 338 337 337 337 336 335 335 334 334 334 334 334 333 332 332 330 329 328 329 329 329 329 329 329 330 330 330 331 331 331 331 330 330 330 329 329 330 331 331 331 332 333 332 332 332 331 331 332 331 331 331 331 331 331 330 330 331
334 334 335 335 335 336 335 335 335 334 334 334 333 333 333 332 332 331 329 329 329 328 327 327 327 327 327 327 326 327 328 328 328 329 328 328 328 328 327 327 328 329 330 331 331 331 332 332 332 332 332 331 332 332 331 331 331 332 332 331 330 330
332 332 332 332 332 333 332 332 332 332 332 331 331 331 330 330 329 328 328 328 328 328 327 326 326 325 325 325 324 325 325 324 324 324 324 325 325 324 324 325 326 327 327 328 330 330 330 331 331 331 331 331 331 331 331 331 331 332 332 332 331 331
330 330 330 330 330 330 330 331 331 330 330 330 329 329 329 329 329 329 329 328 327 327 325 324 324 323 322 321 320 322 322 321 320 320 320 321 321 321 322 323 323 323 323 324 326 328 328 328 329 329 329 329 330 330 330 331 331 331 331 331 331 330
329 328 328 328 328 328 329 329 330 329 329 329 329 329 329 328 328 328 327 326 326 324 323 322 322 321 318 317 318 319 319 319 319 319 319 319 319 319 320 320 321 322 321 320 322 324 326 327 326 326 326 326 327 327 328 329 329 329 330 330 330 330
327 327 326 326 326 326 326 327 327 327 328 328 328 328 327 326 325 325 324 324 323 322 321 320 319 318 317 316 317 317 317 318 318 317 318 318 318 318 318 319 320 320 318 318 318 320 322 323 322 321 322 323 323 324 325 326 326 327 328 328 328 329
325 325 324 324 324 324 324 324 324 325 325 325 324 324 324 323 323 322 321 321 321 320 320 318 317 317 316 316 316 316 316 316 316 316 316 315 316 316 316 317 317 316 316 316 316 316 318 318 318 318 319 319 320 321 322 323 324 324 325 325 326 327
324 324 323 322 322 322 322 322 322 322 322 322 321 321 321 320 320 320 319 319 319 319 318 317 316 316 316 315 315 315 315 315 315 314 314 313 314 313 313 314 315 314 314 314 314 315 316 316 316 316 316 316 317 318 319 320 321 321 322 323 323 324
323 322 322 321 321 320 320 320 320 320 320 320 319 318 318 318 318 317 317 317 317 317 317 316 316 315 315 314 315 315 314 314 313 312 312 312 312 312 312 312 312 312 312 312 312 313 314 314 314 315 315 315 315 316 317 319 319 319 319 320 320 321
322 321 320 320 319 318 318 318 317 317 317 317 317 316 316 316 316 316 316 316 316 316 316 315 314 314 314 314 313 313 313 312 311 311 311 310 310 310 309 309 309 309 309 309 309 312 313 313 313 313 314 314 314 315 316 317 317 317 317 318 318 319
320 320 319 318 317 317 317 316 316 316 316 315 316 316 315 315 315 315 315 315 315 315 314 313 313 313 313 312 312 311 310 309 309 308 308 307 307 307 306 306 306 305 306 306 306 309 310 311 311 312 312 312 313 314 314 315 314 315 315 316 316 317
Wind_Speed
10 10 10 7 7 10 13 13 13 13 13 12 11 10 9 8 8 7 7 7 8 7 5 4 4 3 4 4 4 3 2 2 2 2 1 1 2 4 7 8 8 8 7 6 5 4 3 2 2 2 3 4 4 3 4 3 2 1 0 1 4 3
11 11 10 9 7 9 13 13 13 14 11 11 10 10 10 8 8 7 6 7 7 6 3 3 3 1 2 3 5 4 3 2 2 3 2 2 1 1 3 5 5 6 5 4 4 3 1 1 1 1 0 1 2 2 1 2 3 1 1 2 6 4
12 12 11 9 7 9 12 12 14 13 11 11 10 10 9 8 8 7 5 5 5 4 3 2 2 2 1 1 4 4 4 4 3 3 2 2 1 0 1 2 3 3 3 3 3 2 2 3 3 3 1 3 1 2 4 4 3 1 2 3 8 4
13 12 11 9 8 10 12 13 13 12 11 11 10 9 8 7 7 7 5 4 4 5 5 3 4 4 3 1 2 3 3 3 3 3 2 1 1 1 1 2 3 2 2 3 2 1 4 5 6 6 4 3 1 3 5 3 2 3 2 5 8 4
12 12 11 9 9 12 13 13 13 12 11 11 10 10 9 8 7 7 6 5 5 7 6 3 4 5 3 2 1 2 2 3 4 4 4 3 3 3 3 4 4 5 2 2 3 5 7 7 7 7 6 4 3 6 6 4 5 5 4 8 9 6
13 12 12 11 12 13 13 12 13 12 11 10 9 10 9 9 8 8 8 6 7 8 6 5 5 5 4 4 2 1 2 2 2 2 3 3 2 3 3 3 5 6 4 4 7 8 9 9 8 7 7 7 7 7 7 6 7 6 6 9 11 8
13 14 14 14 14 14 14 13 13 13 12 12 10 8 8 8 7 9 10 8 8 8 6 5 5 5 4 5 5 5 3 2 3 2 1 2 4 4 2 4 6 6 6 8 9 9 9 10 10 9 8 8 8 8 8 7 8 8 7 9 12 11
14 15 14 14 13 13 13 13 13 11 11 13 12 9 9 9 7 9 9 7 9 8 5 5 4 5 5 3 4 4 4 2 3 4 3 3 4 4 4 6 6 6 7 8 9 10 10 10 11 10 10 9 9 9 9 9 9 10 9 10 13 13
14 15 14 13 13 13 14 13 13 12 11 13 13 11 11 10 7 8 9 8 8 7 6 6 5 5 4 4 4 3 4 4 4 5 4 4 4 4 5 6 7 7 7 7 8 10 11 11 11 12 11 11 12 11 11 11 11 11 11 11 13 14
15 15 15 14 14 14 15 14 14 14 13 13 13 12 11 10 9 8 8 7 7 7 7 6 6 5 4 5 4 3 5 4 3 5 4 4 5 6 6 6 7 8 7 8 8 9 11 11 11 13 13 14 14 14 12 11 12 12 12 12 12 15
14 15 15 15 15 14 14 14 14 13 12 12 12 11 10 11 11 9 8 8 7 7 6 5 5 4 3 4 2 2 2 1 2 4 3 4 7 8 8 7 7 8 9 10 9 8 9 10 11 12 14 15 16 14 13 13 14 13 13 13 12 14
14 15 15 15 15 14 13 13 13 12 11 11 11 10 10 10 10 10 9 8 6 5 4 3 1 1 1 1 1 1 2 2 3 4 4 6 7 8 8 7 7 9 11 10 9 9 9 10 11 12 13 14 15 14 14 14 16 15 14 15 15 14
14 14 14 14 13 13 13 13 13 13 12 12 12 11 11 10 9 8 8 6 4 3 2 1 1 1 1 0 2 1 2 3 3 4 5 6 6 7 7 7 7 9 10 8 8 10 11 11 12 12 13 13 14 15 15 14 15 15 14 15 15 14
14 13 13 12 13 13 14 15 14 14 14 13 12 11 10 9 8 7 7 6 4 3 2 2 1 1 1 0 2 2 2 3 4 5 6 6 6 7 7 7 7 8 9 8 9 11 12 12 12 13 13 13 14 15 16 15 15 16 16 16 15 15
14 14 14 13 14 15 15 15 13 13 13 12 11 10 9 9 7 6 6 6 5 3 2 1 1 1 2 0 2 3 2 3 6 6 5 6 6 7 7 7 8 8 9 9 10 12 12 13 14 15 15 14 14 15 16 16 17 17 18 20 18 17
15 15 15 15 15 14 14 13 11 11 11 11 10 9 9 9 8 7 6 5 4 3 2 1 1 1 1 1 1 2 2 4 6 6 5 6 6 6 7 8 9 9 9 9 9 11 13 13 15 15 15 16 16 17 18 18 19 19 18 20 19 18
16 15 14 13 13 12 11 10 10 10 11 11 10 9 8 8 8 7 6 5 4 4 3 2 2 1 1 1 1 1 3 5 5 5 6 6 7 7 7 7 8 9 10 10 10 11 12 13 14 15 16 17 16 18 20 20 20 21 20 19 20 20
15 14 13 12 11 10 10 11 10 10 10 10 10 9 8 7 7 7 6 4 4 4 4 3 2 1 1 0 1 1 3 5 4 3 5 6 7 8 7 6 7 9 9 10 11 11 13 13 14 16 17 17 17 19 22 20 20 21 21 19 20 22
12 12 12 11 11 11 12 12 11 10 10 10 9 8 8 7 6 6 5 5 5 4 4 3 2 1 1 1 1 2 3 4 3 3 4 4 5 6 8 8 8 9 10 10 11 12 12 13 14 15 17 17 18 19 20 19 20 20 20 20 21 21
11 11 11 12 13 13 13 12 11 11 11 11 9 8 8 7 6 6 5 5 4 3 3 2 1 1 1 1 1 2 3 4 3 4 5 5 6 7 9 11 11 11 11 11 10 10 11 13 14 15 17 17 18 19 18 16 17 19 20 21 21 21
12 12 13 13 14 13 12 11 11 11 10 10 9 8 8 7 8 8 7 6 4 3 3 2 1 1 1 1 1 2 3 4 4 5 7 7 9 9 9 11 11 11 11 11 11 10 11 13 14 14 14 15 16 17 18 16 15 16 17 17 18 19
13 13 12 12 13 13 13 12 11 11 10 10 9 8 8 8 8 7 6 5 4 4 3 3 3 3 3 3 3 4 4 5 5 7 9 8 9 10 10 10 11 10 10 10 11 10 11 12 13 14 14 16 16 14 16 16 16 16 16 16 16 17
14 13 12 13 14 13 13 13 12 12 11 11 10 9 8 8 7 6 5 4 5 5 4 4 3 3 4 5 5 4 5 6 7 8 9 8 9 10 10 10 10 10 10 10 10 10 11 12 13 15 14 15 16 15 15 13 12 15 17 17 16 17
14 13 12 13 12 11 11 10 10 11 11 10 10 9 8 8 6 5 4 4 4 3 2 2 3 3 4 5 5 5 5 6 7 8 8 9 9 9 10 10 10 10 10 10 10 11 12 12 12 13 13 14 16 15 13 10 12 17 17 15 15 15
13 12 11 10 9 9 10 9 8 9 8 8 8 7 6 6 5 5 4 2 1 1 1 1 1 2 2 3 3 4 5 5 6 6 6 7 8 8 8 9 9 9 9 10 11 11 12 13 12 11 12 14 13 12 13 15 19 19 14 12 14 15
11 10 9 9 9 9 9 8 8 8 7 7 7 6 5 5 5 5 3 1 3 5 4 3 3 1 1 3 3 2 2 3 5 5 5 5 6 7 8 8 7 7 8 9 11 11 12 13 13 12 13 13 12 13 17 19 19 19 17 16 15 15
11 10 9 9 9 9 9 8 8 7 6 6 6 6 6 5 3 2 2 2 4 4 3 1 2 2 1 3 5 5 4 3 4 5 6 6 6 7 8 8 7 5 7 8 9 10 11 12 12 13 14 13 13 15 18 18 18 19 21 22 20 16
10 9 9 8 8 8 8 7 7 5 5 5 4 5 4 3 3 3 3 2 2 3 2 2 2 2 3 4 3 3 4 5 5 5 5 7 8 9 8 8 8 7 7 8 6 8 9 9 10 11 11 12 13 14 16 18 18 18 18 22 24 20
10 10 9 9 8 8 7 8 7 5 5 5 4 4 3 3 3 2 2 1 2 3 3 3 4 3 3 3 2 1 3 5 6 6 5 5 7 8 6 5 7 8 9 9 8 8 8 7 8 9 10 11 12 13 15 16 16 16 17 20 22 22
10 9 9 9 10 10 9 8 8 7 6 6 6 5 4 3 4 2 1 0 1 2 2 2 3 2 1 2 1 1 3 4 5 5 5 5 6 6 5 4 5 8 9 9 10 11 10 8 9 10 11 12 13 13 14 14 15 15 16 18 20 23
9 9 9 9 9 9 9 8 7 8 7 6 6 6 5 4 4 3 1 1 1 1 2 1 2 3 2 1 2 2 3 4 5 5 5 6 7 7 6 5 5 8 8 8 9 11 12 11 12 12 12 13 15 15 15 16 16 17 18 19 21 23
9 8 8 8 8 7 7 7 7 9 10 8 7 7 6 4 4 3 3 3 3 3 2 1 2 3 2 2 2 2 3 4 4 5 5 5 7 7 6 6 7 9 9 8 8 9 11 13 13 12 12 13 14 15 16 17 17 19 20 22 23 25
9 9 8 8 8 8 7 7 7 7 8 7 6 6 5 4 5 4 4 4 3 3 2 1 2 3 3 4 4 4 5 5 6 7 7 7 7 7 8 7 7 9 9 9 9 9 9 12 13 13 13 13 13 13 14 15 17 19 20 22 23 24
9 9 8 8 8 9 8 8 8 8 7 7 7 6 6 6 5 5 5 5 5 4 3 3 4 5 5 5 5 6 6 7 7 8 8 9 9 9 9 8 8 9 10 10 10 10 10 11 11 12 12 13 13 13 13 13 15 17 18 19 20 22
9 8 8 8 8 9 8 8 8 8 8 7 7 7 6 6 6 6 6 6 5 5 5 5 6 6 6 6 6 6 7 8 9 9 9 10 10 10 10 10 10 10 11 11 11 10 9 9 10 11 11 12 12 11 11 13 15 15 16 17 18 20
9 9 8 8 8 9 8 8 8 8 8 8 7 7 7 7 7 7 7 7 6 7 7 7 7 7 6 6 6 6 7 8 9 9 9 9 10 10 10 10 10 10 11 11 11 10 9 9 10 10 10 11 11 11 12 13 14 14 15 16 17 18
9 10 9 9 8 8 8 8 8 8 8 8 8 8 8 8 7 7 8 8 8 8 8 7 7 7 6 7 7 7 8 8 8 8 9 9 9 9 9 10 10 11 12 12 12 11 10 11 10 10 11 11 12 12 12 13 13 13 14 15 16 17
Wind_Direction
144 146 150 153 161 164 157 154 145 136 139 147 152 153 147 144 141 128 125 117 105 98 88 86 67 26 12 5 7 23 31 58 68 70 89 97 115 140 149 152 152 155 146 136 133 122 112 109 125 143 149 143 153 146 87 91 119 125 60 155 225 253
145 148 149 146 159 169 159 151 137 134 142 144 146 147 140 140 132 124 131 120 106 103 97 96 90 22 16 7 3 12 18 32 46 53 57 60 78 141 159 162 159 163 152 139 138 128 96 6 339 306 265 234 220 75 7 211 135 161 178 165 243 260
147 147 146 145 160 165 153 147 140 142 151 143 144 146 144 147 141 141 151 127 113 132 162 158 172 189 182 319 356 9 26 31 32 40 38 48 72 24 235 208 195 175 159 153 140 128 286 293 293 302 325 286 279 113 241 236 125 217 216 218 247 255
149 144 143 148 156 152 144 148 150 154 157 152 154 156 158 160 153 155 161 158 148 174 196 207 201 193 183 200 8 34 47 32 24 19 4 23 49 29 310 274 261 249 199 160 125 194 246 258 270 280 292 294 281 223 243 247 218 241 232 239 251 264
147 143 145 149 149 147 148 152 156 162 163 162 167 166 167 168 167 170 174 183 179 190 199 178 178 187 171 159 46 25 17 15 19 348 348 26 6 347 347 322 299 294 266 189 230 232 221 227 248 265 274 266 240 238 243 245 242 236 224 246 261 276
146 148 147 150 155 153 153 155 157 170 171 166 173 169 168 171 173 176 179 185 186 192 182 134 130 149 149 154 154 42 1 19 53 308 347 68 269 290 348 305 289 296 276 228 230 230 228 226 228 240 252 247 237 241 242 241 244 240 232 250 265 269
150 152 151 157 162 156 153 159 163 173 169 162 172 168 164 171 175 184 190 191 180 176 161 138 125 141 160 159 167 169 164 151 142 222 275 136 241 257 213 234 247 252 246 239 235 233 237 239 233 227 237 244 239 242 246 245 248 250 244 250 263 264
154 153 156 160 157 154 156 163 164 168 166 162 164 161 167 174 175 176 173 157 149 155 164 169 161 168 177 165 180 176 156 169 173 193 210 189 242 265 237 245 251 250 250 246 241 240 240 245 245 231 228 238 239 241 244 245 246 251 250 248 260 267
156 155 158 156 153 158 161 163 161 164 168 160 158 165 170 164 155 141 125 119 136 156 176 178 176 185 194 188 199 193 177 202 209 215 231 217 231 246 246 258 262 259 259 257 251 247 241 241 247 243 235 234 236 241 246 251 251 251 254 251 256 266
157 157 157 154 158 162 160 160 160 166 165 153 154 158 152 147 153 150 138 148 166 174 180 185 187 190 212 215 211 211 204 211 217 224 250 267 258 243 233 244 257 266 264 258 258 254 250 245 244 247 248 248 247 244 245 254 258 255 255 254 254 263
159 157 156 157 161 160 158 158 157 161 157 149 152 148 144 153 164 169 169 174 180 179 182 190 195 198 220 227 220 232 241 248 244 243 245 263 267 255 242 236 243 260 258 246 247 252 255 253 250 249 252 260 268 262 249 244 245 248 253 253 251 259
162 158 158 162 163 158 158 158 157 156 152 153 155 155 161 167 172 173 173 177 177 171 177 184 194 226 212 257 296 261 275 267 257 265 249 242 256 263 264 259 251 259 260 251 255 265 263 260 259 255 252 256 267 267 260 251 245 248 254 255 252 254
164 160 162 164 159 157 159 160 162 159 156 158 158 164 169 169 173 168 159 163 159 142 128 97 45 19 91 320 281 255 274 272 278 283 272 267 271 279 281 277 275 276 277 268 263 266 264 266 265 263 260 257 257 260 261 261 255 252 253 256 258 257
163 162 164 160 159 163 163 163 164 160 158 161 163 167 166 164 165 152 139 138 131 124 108 88 73 43 88 186 275 292 294 287 306 304 299 306 301 298 300 291 283 280 281 275 263 260 257 259 262 260 260 258 259 260 260 261 260 256 252 251 255 257
164 164 165 164 170 171 166 164 162 158 158 163 164 160 155 151 146 135 124 121 118 123 121 99 92 73 88 134 288 308 293 288 311 313 304 305 299 298 299 292 289 286 285 281 274 274 267 258 259 260 257 259 262 262 262 263 263 261 261 262 258 256
169 170 172 173 174 170 164 161 157 155 157 160 159 152 145 137 133 128 118 115 114 115 118 99 67 48 81 131 259 278 275 292 316 320 311 312 314 311 297 289 292 294 292 287 281 281 278 271 271 272 266 264 265 263 263 264 264 262 262 268 265 256
173 172 176 175 169 163 158 154 156 155 152 151 145 138 134 130 128 122 117 119 114 110 105 86 70 38 73 129 243 242 279 304 326 322 313 320 324 318 310 305 302 301 302 299 292 286 282 280 279 277 271 270 271 269 267 264 265 267 263 263 265 262
174 170 172 168 161 157 152 153 158 153 142 134 127 127 128 127 125 116 118 124 109 103 92 73 58 30 55 117 280 262 289 307 320 311 309 317 317 315 319 324 312 304 304 301 298 294 288 286 283 278 276 276 274 271 272 271 268 269 270 266 265 268
172 168 164 159 159 160 157 152 149 143 133 125 123 125 125 126 130 124 123 117 102 96 85 63 39 40 62 56 322 300 298 299 302 297 297 301 303 304 306 309 304 298 299 299 299 299 297 295 292 288 289 289 285 281 280 279 272 268 270 269 266 268
171 169 162 161 164 161 156 149 143 143 139 137 138 133 130 127 121 115 109 103 95 88 77 48 24 55 63 75 274 287 289 286 296 298 289 286 286 286 292 300 300 296 297 300 300 298 299 299 298 299 303 306 304 302 298 290 281 275 274 274 272 271
172 171 167 166 163 153 152 153 151 148 140 136 130 123 130 125 116 115 112 103 85 73 76 65 48 24 341 317 280 280 283 290 297 293 291 291 291 293 296 297 299 300 302 305 306 303 304 307 309 308 307 305 299 297 300 296 291 288 284 283 279 274
172 173 170 167 161 156 160 157 147 139 126 120 116 120 128 121 118 119 113 101 84 84 82 69 50 5 319 303 306 306 303 307 302 295 299 298 296 302 303 300 300 304 308 309 309 306 309 314 314 310 306 303 298 297 299 292 291 294 291 289 284 278
168 173 174 171 167 165 162 153 144 136 130 130 128 128 124 117 115 106 94 91 89 88 73 54 34 6 330 312 312 312 306 306 302 301 308 305 299 303 305 308 309 306 308 310 309 306 310 314 313 313 312 307 307 310 307 296 295 303 300 296 289 285
165 168 172 168 162 155 150 146 140 135 135 134 125 120 118 114 113 105 96 92 89 74 62 57 25 13 347 326 321 316 307 308 312 314 318 314 308 309 308 312 314 309 310 312 310 309 311 313 313 315 314 311 311 309 309 312 314 312 308 303 299 293
161 159 158 147 138 132 129 129 127 125 125 122 117 123 126 114 119 139 136 108 122 141 150 154 63 35 353 322 321 322 315 316 319 318 320 315 309 310 309 310 309 307 312 313 312 312 313 314 313 312 308 309 314 309 309 316 316 313 308 302 302 302
135 135 131 123 120 120 119 122 124 124 129 128 127 131 123 112 130 160 163 193 207 200 213 218 204 194 237 239 239 268 293 309 310 304 304 301 301 303 298 296 293 297 307 312 311 310 312 314 312 313 311 307 306 303 306 311 311 310 309 304 300 299
122 121 117 117 119 117 118 123 120 119 123 120 122 128 126 127 145 187 195 218 236 232 239 226 213 236 269 249 231 223 228 244 268 285 289 279 276 276 276 274 263 277 298 298 304 306 310 314 312 313 315 312 306 302 304 306 305 307 309 309 307 304
124 123 115 115 116 116 118 116 110 110 115 114 124 140 144 151 164 197 203 217 278 297 300 304 316 349 358 328 266 228 233 226 235 267 271 264 266 263 274 281 260 254 267 267 282 294 295 305 310 312 312 310 307 306 307 306 305 304 302 303 306 309
114 111 109 109 107 110 109 105 105 112 124 133 143 140 126 122 132 170 207 226 285 300 302 314 347 20 12 335 298 255 280 253 251 265 255 260 276 270 282 295 268 261 265 270 277 271 270 288 301 302 302 303 305 305 307 306 306 303 298 297 300 306
102 98 98 98 100 104 103 105 110 112 115 122 128 124 120 127 121 128 172 101 279 295 326 12 10 349 299 332 340 333 334 311 293 294 286 298 312 299 295 302 287 282 281 287 283 263 263 287 300 300 299 303 307 306 307 309 310 309 305 302 301 303
94 90 86 85 90 97 104 116 124 128 131 128 135 140 145 157 145 139 149 98 77 29 36 50 2 325 300 351 342 307 333 343 334 334 334 329 330 328 322 324 323 312 304 308 295 270 265 276 288 299 301 299 303 305 306 305 305 308 310 310 308 307
87 82 78 78 80 83 96 112 125 142 152 152 156 164 163 154 132 123 108 89 88 72 48 16 10 6 20 45 17 346 351 0 357 358 8 359 345 347 348 342 331 325 327 328 315 293 280 279 286 300 305 300 302 305 301 298 299 304 305 306 308 307
82 76 73 73 76 79 87 97 106 126 145 144 136 144 147 122 104 104 97 89 87 81 75 58 53 57 64 60 44 36 32 27 21 17 19 18 8 4 6 360 341 339 343 337 329 320 303 297 301 308 310 308 307 307 303 302 305 306 304 305 309 310
79 74 72 73 76 81 86 92 98 100 109 112 102 103 108 105 101 97 93 96 92 88 92 87 76 73 71 64 52 44 38 30 28 25 20 16 12 8 6 4 353 348 347 341 337 330 317 313 314 313 315 315 313 314 315 315 312 309 310 310 311 312
83 78 77 80 82 86 88 94 99 99 100 99 99 104 104 102 102 101 105 109 106 107 106 97 90 83 73 63 54 43 36 33 28 24 17 11 8 4 359 359 354 346 343 341 338 333 331 329 324 323 325 322 323 329 332 326 318 316 318 317 313 312
84 84 85 89 91 91 92 98 103 107 106 101 102 106 103 102 100 109 121 118 112 114 108 100 95 86 74 61 52 44 37 32 25 18 13 7 4 1 359 0 356 352 350 347 345 345 344 339 334 336 335 330 335 342 336 326 321 322 323 320 318 318
89 90 91 94 95 95 94 98 103 108 108 106 107 107 107 105 96 108 126 121 114 113 106 102 95 82 70 59 53 49 42 34 27 22 19 14 12 9 10 10 7 5 2 357 360 358 348 342 343 346 344 342 346 345 334 326 325 326 325 323 322 320